{"data":{"norad_id":65337,"epoch":"2026-05-25T04:56:22.377984Z","epoch_age_seconds":64034,"freshness":"FRESH","line1":"1 65337U 25189Q   26145.20581456  .00015016  00000+0  51795-3 0  9990","line2":"2 65337  53.1575 211.1980 0001021  82.7111 277.4006 15.30209198 42761","mean_motion":15.30209198,"eccentricity":0.0001021,"inclination_deg":53.1575,"raan_deg":211.198,"arg_perigee_deg":82.7111,"mean_anomaly_deg":277.4006,"bstar":0.00051795,"rev_number":4276,"period_min":94.104780044591,"perigee_km":474.48788154457,"apogee_km":475.88733042912,"semimajor_km":6853.3246059868,"source":"CELESTRAK","updated_at":"2026-05-25T13:38:20.761170Z"}}